Overview Statistics Trail Chart Weather Telemetry Raw packets
 

This is the latest recevied weather packets stored in our database for station/object KC9DRE. If no packets are shown the sender has not sent any weather packets the latest 10 day(s).

<< 6 7 8 9 10 11 12 >>
Time Temp. Humidity Pressure Rain* Wind** Luminosity Snow
1777848552 18.33° C 41% 1013.7 hPa 0 mm - 152 W/m² -
1777848249 18.33° C 40% 1013.9 hPa 0 mm - 159 W/m² -
1777847946 18.33° C 39% 1014 hPa 0 mm - 180 W/m² -
1777847644 18.89° C 39% 1014.2 hPa 0 mm - 194 W/m² -
1777847339 18.89° C 38% 1014.3 hPa 0 mm - 218 W/m² -
1777847038 18.89° C 38% 1014.5 hPa 0 mm - 249 W/m² -
1777846736 18.33° C 38% 1014.7 hPa 0 mm - 267 W/m² -
1777846434 17.78° C 39% 1014.7 hPa 0 mm - 213 W/m² -
1777846130 17.78° C 41% 1014.6 hPa 0 mm - 250 W/m² -
1777845827 17.78° C 39% 1014.6 hPa 0 mm - 139 W/m² -
1777845524 18.89° C 39% 1015.1 hPa 0 mm - 181 W/m² -
1777845221 18.89° C 40% 1015.1 hPa 0 mm - 188 W/m² -
1777844919 18.89° C 38% 1015 hPa 0 mm - 317 W/m² -
1777844616 18.33° C 41% 1014.7 hPa 0 mm - 359 W/m² -
1777844313 17.78° C 40% 1014.9 hPa 0 mm - 288 W/m² -
1777844011 18.33° C 40% 1015.1 hPa 0 mm - 160 W/m² -
1777843707 18.89° C 38% 1015.6 hPa 0 mm - 288 W/m² -
1777843405 18.89° C 37% 1015.6 hPa 0 mm - 428 W/m² -
1777843102 19.44° C 36% 1015.7 hPa 0 mm - 399 W/m² -
1777842799 20° C 35% 1015.6 hPa 0 mm - 439 W/m² -
1777842499 20° C 36% 1015.9 hPa 0 mm - 467 W/m² -
1777842197 19.44° C 37% 1015.8 hPa 0 mm - 480 W/m² -
1777841891 19.44° C 36% 1015.9 hPa 0 mm - 503 W/m² -
1777841588 19.44° C 35% 1015.7 hPa 0 mm - 512 W/m² -
1777841285 19.44° C 36% 1015.4 hPa 0 mm - 479 W/m² -

* Rain latest hour (hover to see other rain measurements)
** Current wind speed in m/s (hover to see current wind gust speed)